NOAA 16 DEB, 41712

Orbit data source: Space-Track

NOAA 16 DEB, 41712 is space debris in SSO originally from a launch on Thu, 21 Sep 2000 UTC launched from the Air Force Western Test Range (AFWTR). Debris objects in space refer to the collection of defunct objects orbiting the Earth. Examples of debris include non-operational satellites, rocket bodies, and fragments generated from explosions, collisions, or faulty payload assembly.

Loading next visibility...
Identifier
41712, 2000-055PS
Orbit
SSO
Country
Flag of USUS
Related business
Manufacturer
Unknown
Mission
Spacecraft
Bus & Motor
Unknown
Mass
Unknown
Launch date (UTC)
2000-09-21 (25 years ago)
Launch vehicle
Unknown
Launch site
Air Force Western Test Range (AFWTR)
Object type
Payload
Rocket body
Debris
Shape & HBR
Unknown shape, 0.1 m
Radar Cross Section
Small (<0.1 m²)

Expand to show TLE details & history
Last TLE update: 20 hours ago

TLE from 20 hours ago
0 NOAA 16 DEB
1 41712U 00055PS  25310.58889792  .00028692  00000-0  67924-2 0  9999
2 41712  98.8415  73.0515 0026819  37.1726 323.1319 14.53764401494672
Epoch: 2025-11-06T14:08Z
TLE epoch observation values (Epoch: 2025-11-06T14:08:00.780Z)
Latitude
-0.00001°
Longitude
175.0032°
Altitude
701.136 km
Speed
7.513 km/s
True Right ascension
04h 52m 12s
True Declination
0° 00' 00"
Sunlit
Object was in full shadow at epoch
Visualization orbit readout
Latitude
Unknown
Longitude
Unknown
Altitude
Unknown
Speed
Unknown
Apparent Right ascension
Unknown
Apparent Declination
Unknown
Sunlit
N/A
Visualization observer readout
Local Sidereal Time
06:43:53
Azimuth
Unknown
Elevation
Unknown
Doppler factor
Unknown
Orbital elements
Apogee altitude
729.511 km
Perigee altitude
691.489 km
Semi-major axis
7,088.637 km
Eccentricity
0.00268
Inclination
98.8415°
RAAN
73.0515°
Arg. of periapsis
37.1726°
True anomaly
322.94702°
Mean anomaly
323.1319°
Eccentric anomaly
323.03951°
Mean motion
3.63663 °/min
Orbital period
98.99 mins
BSTAR
0.0067924
Loading maneuver chart data...
Computing Atmospheric mass density...
Loading historical data...
Loading historical data...
Loading historical data...
Loading historical data...
Loading historical data...
Loading historical data...
Loading historical data...

Documentation

Showing up to 5 results
|